Regional Weather Roundup
Issued by NWS

Home | Current Version | Previous Version | Text Only | Print | Product List | Glossary On
Versions: 1 2 3 4 5 6 7 8 9 10 11 12 13 14 15 16 17 18 19 20 21 22 23 24 25 26 27 28 29 30 31 32 33 34 35 36 37 38 39 40 41 42 43 44 45 46 47 48 49 50
000
ASUS43 KLOT 282021
RWRIL

ILLINOIS REGIONAL WEATHER ROUNDUP
NATIONAL WEATHER SERVICE CHICAGO/ROMEOVILLE IL
300 PM CDT THU MAY 28 2015

NOTE: "FAIR" INDICATES FEW OR NO CLOUDS BELOW 12,000 FEET WITH NO
SIGNIFICANT WEATHER AND/OR OBSTRUCTIONS TO VISIBILITY.

* THESE STATIONS ARE NOT UNDER NWS QUALITY CONTROL. THEY ALSO MAY NOT
  REPORT WEATHER SUCH AS PRECIPITATION OR FOG.

ILZ001-002-007-009-015-016-024-282100-
NORTHWEST ILLINOIS

CITY           SKY/WX    TMP DP  RH WIND       PRES   REMARKS
MOLINE         MOSUNNY   80  52  37 S10G21    30.10F HX  80
STERLING*      MOSUNNY   84  55  37 S10G16    30.12F HX  83
SAVANNA*       SUNNY     83  49  30 SE14      30.12F HX  81
$$

ILZ003-004-008-010-011-017-018-282100-
NORTH CENTRAL ILLINOIS

CITY           SKY/WX    TMP DP  RH WIND       PRES   REMARKS
ROCKFORD       PTSUNNY   82  54  37 S12G22    30.15F HX  81
FREEPORT*      MOSUNNY   80  54  40 S17G23    30.16F HX  80
ROCHELLE*      MOSUNNY   80  54  40 SE14G24   30.14F HX  80
DE KALB*       MOSUNNY   77  56  48 SE10G20   30.16F
$$

ILZ005-006-012>014-019>023-282100-
NORTHEAST ILLINOIS

CITY           SKY/WX    TMP DP  RH WIND       PRES   REMARKS
CHICAGO-OHARE  MOSUNNY   82  54  37 E12       30.14F HX  81
CHICAGO-MIDWAY PTSUNNY   83  57  41 E12       30.14F HX  82
AURORA         PTSUNNY   83  55  38 S14G21    30.15F HX  82
LANSING*       SUNNY     82  47  29 SE9       30.15F HX  80
JOLIET*        SUNNY     84  56  38 S10       30.14F HX  83
WAUKEGAN       MOSUNNY   74  58  57 SE12      30.17F
DUPAGE AIRPORT MOSUNNY   82  55  39 SE9       30.15F HX  81
KANKAKEE*      SUNNY     83  52  34 SE12G17   30.14F HX  82
WHEELING       SUNNY     80  54  40 E7        30.17F HX  80
MORRIS*        SUNNY     83  52  33 SE9       30.13F HX  81
ROMEOVILLE*    SUNNY     82  53  36 SE9       30.14F HX  81
NORTHERLY ISL    N/A     70  55  59 NE3         N/A
$$

LMZ740>746-282100-
SOUTHERN LAKE MICHIGAN

STATION/POSITION SKY/WX   TEMP    WIND        PRES    VSBY  WAVE
                          AIR SEA DIR/SP/G                  HT/PER
                          (F)     (DEG/KT/KT) (MB)    (MI)  (FT/S)
SOUTHERN BUOY              57 39  190/  6/  6 1022.7F         0
HARRISON CRIB              62      60/  7/  9   N/A
BURNHAM HARBOR             69      10/  3/  5   N/A
CALUMET HARBOR             71      30/  6/  9   N/A
BURNS HARBOR               70      30/  9/ 19 1021.7F
MICHIGAN CITY              79     120/ 11/ 16   N/A
MICHIGAN CITY 6N           62 56   20/  8/  8   N/A           1
ST. JOSEPH                 62 59   10/  6/  8   N/A           0
$$

ILZ025>027-034>036-040-047-049-050-058-095>099-282100-
WEST-CENTRAL ILLINOIS

CITY           SKY/WX    TMP DP  RH WIND       PRES   REMARKS
QUINCY         MOSUNNY   80  62  54 SE9       30.08F HX  81
GALESBURG*     PTSUNNY   80  53  38 SE9G21    30.11F HX  80
MACOMB*        MOSUNNY   81  55  40 SE15      30.13F HX  80
JACKSONVILLE*  MOSUNNY   83  61  45 SE3       30.09F HX  84
PITTSFIELD*    MOSUNNY   83  64  52 E9        30.09F HX  84
$$

ILZ028>032-037-038-041>044-048-051>054-059>061-282100-
CENTRAL ILLINOIS

CITY           SKY/WX    TMP DP  RH WIND       PRES   REMARKS
PONTIAC        MOSUNNY   85  50  29 SE12G21   30.14F HX  83
BLOOMINGTON    PTSUNNY   84  53  34 SE15      30.14F HX  82
DECATUR        MOSUNNY   84  56  38 SE5       30.12F HX  83
PEORIA         PTSUNNY   85  53  33 SE14      30.12F HX  83
LACON*         MOSUNNY   83  52  34 SE12G17   30.11F HX  81
LINCOLN*       MOSUNNY   85  55  35 S9        30.09F HX  83
SPRINGFIELD    MOSUNNY   84  58  40 VRB6      30.11F HX  83
TAYLORVILLE    SUNNY     81  63  54 S8        30.10F HX  82
$$

ILZ033-039-045-046-055>057-062-063-282100-
EAST-CENTRAL ILLINOIS

CITY           SKY/WX    TMP DP  RH WIND       PRES   REMARKS
CHAMPAIGN      MOSUNNY   86  52  30 S13       30.13F HX  84
DANVILLE*      MOSUNNY   83  53  36 SE9       30.12F HAZE    HX  81
RANTOUL*       MOSUNNY   85  46  26 S12       30.14F HX  82
PARIS*         MOSUNNY   84  56  37 SE8       30.14F HX  83
$$

ILZ079-100>102-282100-
SOUTHWEST ILLINOIS

CITY           SKY/WX    TMP DP  RH WIND       PRES   REMARKS
ALTON          PTSUNNY   82  70  65 S12       30.09F HX  86
BELLEVILLE     MOSUNNY   83  69  61 S7        30.09F HX  87
CAHOKIA*       MOSUNNY   83  65  54 S10G17    30.09F HX  85
SPARTA*        PTSUNNY   80  66  62 S10       30.11F HX  83
$$

ILZ064>066-069>071-074>076-080>082-084>086-088>090-092>094-282100-
SOUTH-CENTRAL ILLINOIS

CITY           SKY/WX    TMP DP  RH WIND       PRES   REMARKS
CARBONDALE     MOSUNNY   82  65  56 S9        30.11F HX  84
CAIRO*         MOSUNNY   81  65  57 SE7       30.12F HX  83
EFFINGHAM*     SUNNY     85  57  38 SE7       30.13F HX  84
MARION         PTSUNNY   84  68  58 MISG      30.13F HX  87
MT. VERNON     MOSUNNY   84  68  58 S10       30.12F HX  87
CENTRALIA*     FAIR      87  64  46 S6        30.12F HX  87
SALEM*         PTSUNNY   86  64  47 S10       30.12F HX  87
METROPOLIS*    MOSUNNY   84  66  54 SE7       30.12F HX  87
$$

ILZ067-068-072-073-078-083-087-091-282100-
SOUTHEAST ILLINOIS

CITY           SKY/WX    TMP DP  RH WIND       PRES   REMARKS
LAWRENCEVILLE  PTSUNNY   85  62  46 S9        30.13F HX  85
FLORA*         MOSUNNY   82  64  53 S12       30.12F HX  83
FAIRFIELD*     PTSUNNY   85  65  51 S10       30.11F HX  87
HARRISBURG*    MOSUNNY   84  64  51 SW9       30.14F HX  85
ROBINSON*      PTSUNNY   83  61  46 S5        30.14F HX  84
CARMI*         MOSUNNY   86  57  37 SE9       30.12F HX  85
$$

ABBREVIATIONS USED IN REMARKS
   TC - TEMPERATURE IN CELSIUS
  WCI - WIND CHILL INDEX
   HX - HEAT INDEX
  VSB - VISIBILITY
$$




USA.gov is the U.S. government's official web portal to all federal, state and local government web resources and services.